Stations météo

Publicité
Rennes, France (7130): Température de l'air & dewpoint: 14.07.2018 14:00:00 - 20.07.2018 14:00:00 (CEST)Rennes, France (7130): Température de l'air 5cm: 14.07.2018 14:00:00 - 20.07.2018 14:00:00 (CEST)Rennes, France (7130): Température de l'air -20cm & Température de l'air -100cm: 14.07.2018 14:00:00 - 20.07.2018 14:00:00 (CEST)Rennes, France (7130): Vitesse du vent & gusts: 14.07.2018 14:00:00 - 20.07.2018 14:00:00 (CEST)Rennes, France (7130): Direction du vent: 14.07.2018 14:00:00 - 20.07.2018 14:00:00 (CEST)Rennes, France (7130): reduced air pressure: 14.07.2018 14:00:00 - 20.07.2018 14:00:00 (CEST)Rennes, France (7130): visibility: 14.07.2018 14:00:00 - 20.07.2018 14:00:00 (CEST)Rennes, France (7130): Ensoleillement: 14.07.2018 14:00:00 - 20.07.2018 14:00:00 (CEST)Rennes, France (7130): Quantités de précipitations: 14.07.2018 14:00:00 - 20.07.2018 14:00:00 (CEST)
Date & Time tt [°C] td [°C] tt 5cm [°C] tt -20cm [°C] tt -100cm [°C] ff [km/h] ff [knt] fx [km/h] fx [knt] dd ppp [hPa] vv [km] sd [min] rr [mm]
20.07.2018 14:00:00 22,0 13,6 25,7 19,2 17,9 20 11 31 17 NNW 1016,1 25 4 0,0
20.07.2018 13:00:00 22,9 13,9 27,9 19,2 17,9 22 12 34 18 NNW 1016,2 18 46 0,0
20.07.2018 12:00:00 22,2 14,3 27,3 19,2 18,0 14 8 28 15 NW 1016,1 20 56 0,0
20.07.2018 11:00:00 20,5 14,6 24,3 19,3 18,0 17 9 29 16 NW 1016,1 20 33 0,0
20.07.2018 10:00:00 18,0 14,7 19,0 19,3 17,9 11 6 19 10 WNW 1016,4 8 9 0,0
20.07.2018 09:00:00 16,4 13,7 17,6 19,5 18,0 14 8 24 13 WNW 1016,2 21 39 0,0
20.07.2018 08:00:00 14,5 13,5 8,6 19,5 17,9 4 2 10 5 WNW 1016,2 16 28 0,0
20.07.2018 07:00:00 12,7 12,2 6,9 19,6 18,0 5 3 10 5 W 1016,2 11 0 0,0
20.07.2018 06:00:00 13,0 12,1 7,9 19,6 18,0 5 3 14 7 WNW 1016,3 13 0 0,0
20.07.2018 05:00:00 13,9 12,6 12,0 19,7 17,9 8 5 15 8 W 1016,4 15 0 0,0
20.07.2018 04:00:00 15,4 13,2 13,9 19,7 17,9 10 5 16 9 WNW 1016,5 19 0 0,0
20.07.2018 03:00:00 16,6 13,5 15,8 19,8 18,0 9 5 19 11 WNW 1017,0 23 0 0,0
20.07.2018 02:00:00 16,8 12,3 16,1 19,9 18,0 11 6 17 9 NW 1017,3 29 0 0,0
20.07.2018 01:00:00 17,1 12,6 16,5 19,9 17,9 12 6 22 12 NNW 1017,5 27 0 0,0
20.07.2018 00:00:00 17,6 12,7 16,9 19,9 17,9 12 7 23 13 NNW 1017,5 25 0 0,0
19.07.2018 23:00:00 17,8 13,3 17,3 19,9 17,9 11 6 19 10 NNW 1017,6 25 0 0,0
19.07.2018 22:00:00 18,4 12,6 17,8 20,0 18,0 15 8 22 12 NNW 1017,0 30 0 0,0
19.07.2018 21:00:00 19,1 13,1 18,3 20,0 18,0 12 7 19 11 N 1017,1 33 0 0,0
19.07.2018 20:00:00 19,6 13,8 17,8 20,0 18,0 11 6 22 12 NNW 1017,1 22 0 0,0
19.07.2018 19:00:00 21,4 14,1 20,3 19,9 17,9 14 8 22 12 NNW 1016,7 22 0 0,0
19.07.2018 18:00:00 23,0 13,5 23,7 19,8 17,9 12 6 24 13 NNW 1016,7 31 0 0,0
19.07.2018 17:00:00 24,0 14,1 26,5 19,7 17,9 16 9 26 14 NNW 1016,8 31 0 0,0
19.07.2018 16:00:00 25,2 14,3 30,9 19,7 18,0 14 8 26 14 NNW 1016,8 40 6 0,0
19.07.2018 15:00:00 25,9 14,7 31,5 19,6 17,9 10 6 21 11 N 1016,7 29 1 0,0
19.07.2018 14:00:00 25,5 14,6 34,0 19,5 17,9 13 7 24 13 NW 1016,8 27 46 0,0
19.07.2018 13:00:00 25,1 13,9 32,2 19,5 18,0 9 5 20 11 N 1017,1 41 52 0,0
19.07.2018 12:00:00 23,4 13,3 32,0 19,5 17,9 8 4 19 10 NNW 1017,3 20 60 0,0
19.07.2018 11:00:00 21,5 13,9 28,2 19,5 18,0 7 4 17 9 NW 1017,4 20 60 0,0
19.07.2018 10:00:00 19,8 13,7 21,2 19,6 18,0 9 5 16 9 N 1017,6 19 29 0,0
19.07.2018 09:00:00 17,8 13,5 17,0 19,6 17,9 11 6 18 10 N 1017,5 27 17 0,0
19.07.2018 08:00:00 16,2 13,1 14,6 19,7 17,9 8 4 14 7 NNW 1017,4 31 0 0,0
19.07.2018 07:00:00 15,6 12,7 13,7 19,8 18,0 9 5 15 8 N 1016,9 34 0 0,0
19.07.2018 06:00:00 15,4 12,3 13,4 19,8 17,9 10 5 16 8 N 1017,0 37 0 0,0
19.07.2018 05:00:00 15,7 12,3 12,5 19,9 18,0 11 6 16 9 NNW 1017,4 38 0 0,0
19.07.2018 04:00:00 15,7 11,9 12,4 20,0 17,9 8 4 16 9 NNW 1017,6 40 0 0,0
19.07.2018 03:00:00 14,7 12,0 12,7 20,0 17,9 7 4 14 8 WNW 1017,9 30 0 0,0
19.07.2018 02:00:00 15,7 11,9 12,8 20,1 17,9 8 4 16 8 NW 1018,2 42 0 0,0
19.07.2018 01:00:00 15,3 13,1 12,8 20,1 18,0 8 5 12 6 NW 1018,3 31 0 0,0
19.07.2018 00:00:00 16,1 13,4 13,8 20,2 17,9 10 5 16 8 WNW 1018,1 32 0 0,0
18.07.2018 23:00:00 17,7 13,6 16,0 20,2 18,0 11 6 16 9 NW 1017,6 36 0 0,0
18.07.2018 22:00:00 19,1 13,7 17,8 20,2 18,0 12 7 29 16 NW 1017,2 56 29 0,0
18.07.2018 21:00:00 21,4 14,1 22,3 20,2 18,0 18 10 33 18 NNW 1016,9 42 60 0,0
18.07.2018 20:00:00 23,0 14,0 24,7 20,1 17,9 23 13 36 19 N 1016,4 46 60 0,0
18.07.2018 19:00:00 24,6 13,8 27,2 20,0 17,9 21 11 34 18 NNW 1016,6 51 31 0,0
18.07.2018 18:00:00 25,3 14,4 27,5 19,9 17,9 22 12 32 17 NNW 1016,5 46 16 0,0
18.07.2018 17:00:00 27,0 15,1 30,8 19,8 17,9 11 6 30 16 N 1016,2 56 36 0,0
18.07.2018 16:00:00 26,5 12,9 29,3 19,7 17,9 10 5 24 13 ENE 1016,4 52 37 0,0
18.07.2018 15:00:00 25,6 13,8 30,7 19,6 17,9 13 7 25 13 N 1016,6 53 23 0,0
18.07.2018 14:00:00 25,2 14,0 32,2 19,6 17,9 11 6 31 17 NNW 1016,8 31 39 0,0
18.07.2018 13:00:00 24,4 14,2 32,2 19,6 18,0 12 7 24 13 N 1017,3 38 55 0,0
18.07.2018 12:00:00 23,5 13,7 33,3 19,5 18,0 10 5 22 12 NNE 1017,5 30 60 0,0
18.07.2018 11:00:00 22,3 13,4 30,8 19,6 17,9 9 5 21 11 NNE 1017,8 25 60 0,0
18.07.2018 10:00:00 21,2 13,6 26,9 19,6 17,9 13 7 22 12 NNE 1018,2 14 60 0,0
18.07.2018 09:00:00 19,6 14,0 19,3 19,6 17,9 12 6 21 11 NNE 1018,3 21 50 0,0
18.07.2018 08:00:00 17,3 14,2 14,2 19,7 17,9 9 5 13 7 N 1018,2 25 20 0,0
18.07.2018 07:00:00 15,4 13,4 14,0 19,8 17,9 7 4 16 8 NNW 1018,2 29 0 0,0
18.07.2018 06:00:00 15,5 13,3 14,0 19,8 17,9 8 5 11 6 NNW 1018,3 30 0 0,0
18.07.2018 05:00:00 15,5 13,5 14,5 19,9 17,9 8 4 10 6 NW 1018,5 28 0 0,0
18.07.2018 04:00:00 15,5 13,2 13,8 20,0 17,9 6 3 14 8 WNW 1018,6 25 0 0,0
18.07.2018 03:00:00 14,7 13,2 12,2 20,0 17,9 6 3 9 5 WNW 1018,9 24 0 0,0
18.07.2018 02:00:00 13,9 12,8 7,6 20,1 17,9 7 4 9 5 WNW 1019,0 23 0 0,0
18.07.2018 01:00:00 14,5 12,5 9,6 20,2 17,9 8 5 11 6 WNW 1019,1 23 0 0,0
18.07.2018 00:00:00 16,6 12,1 11,1 20,2 17,9 4 2 14 7 NNW 1019,1 34 0 0,0
17.07.2018 23:00:00 18,1 12,8 14,3 20,2 17,9 8 5 18 10 N 1019,0 34 0 0,0
17.07.2018 22:00:00 20,1 12,8 18,3 20,2 17,9 9 5 19 10 NNE 1018,4 35 11 0,0
17.07.2018 21:00:00 21,1 13,3 21,2 20,1 17,9 12 6 21 12 N 1018,0 40 33 0,0
17.07.2018 20:00:00 23,0 11,4 25,1 20,1 17,9 10 5 16 9 WNW 1017,7 39 29 0,0
17.07.2018 19:00:00 23,2 11,3 25,6 20,0 17,9 7 4 13 7 W 1017,9 40 0 0,0
17.07.2018 18:00:00 23,7 11,1 28,6 20,0 17,9 6 3 18 10 W 1018,2 38 23 0,0
17.07.2018 17:00:00 24,9 11,8 29,3 19,9 17,9 11 6 18 10 W 1018,3 44 19 0,0
17.07.2018 16:00:00 23,1 10,8 27,5 19,9 17,9 5 3 21 11 WSW 1018,7 40 0 0,0
17.07.2018 15:00:00 23,0 11,4 28,6 19,8 17,9 10 6 20 11 WNW 1018,8 39 25 0,0
17.07.2018 14:00:00 22,6 11,6 27,0 19,8 17,9 9 5 18 10 W 1019,4 39 5 0,0
17.07.2018 13:00:00 21,4 11,4 25,3 19,8 17,9 12 6 20 11 WSW 1019,5 39 0 0,0
17.07.2018 12:00:00 21,3 12,2 26,5 19,7 17,9 9 5 20 11 W 1019,5 55 48 0,0
17.07.2018 11:00:00 21,4 11,4 27,4 19,8 17,9 4 2 16 8 SSW 1019,4 48 54 0,0
17.07.2018 10:00:00 19,6 12,8 24,3 19,8 17,9 6 4 16 8 NNW 1019,3 46 47 0,0
17.07.2018 09:00:00 18,1 13,2 18,2 19,9 17,9 9 5 16 9 WNW 1019,2 31 21 0,0
17.07.2018 08:00:00 16,9 13,4 15,7 19,9 17,9 8 5 11 6 WNW 1019,0 28 2 0,0
17.07.2018 07:00:00 16,2 13,3 15,1 20,0 17,9 8 4 11 6 WNW 1018,6 26 0 0,0
17.07.2018 06:00:00 16,3 13,4 14,7 20,1 17,9 6 3 12 7 W 1018,2 24 0 0,0
17.07.2018 05:00:00 16,6 13,7 15,2 20,1 17,9 6 3 10 5 W 1018,1 26 0 0,0
17.07.2018 04:00:00 16,7 13,8 15,4 20,1 17,9 7 4 16 9 W 1018,0 28 0 0,0
17.07.2018 03:00:00 17,6 13,7 15,1 20,2 17,9 9 5 14 7 NNW 1018,1 32 0 0,0
17.07.2018 02:00:00 17,2 13,1 15,5 20,3 17,9 7 4 17 9 NNW 1018,3 35 0 0,0
17.07.2018 01:00:00 18,0 13,9 14,7 20,3 17,9 7 4 14 8 NW 1018,3 37 0 0,0
17.07.2018 00:00:00 17,9 14,0 16,4 20,3 17,9 10 5 22 12 NNW 1017,8 37 0 0,0
16.07.2018 23:00:00 18,8 14,5 17,7 20,4 17,9 14 7 31 17 NNW 1017,5 37 0 0,0
16.07.2018 22:00:00 19,7 15,6 19,2 20,3 17,9 18 10 32 17 NNW 1016,8 28 8 0,0
16.07.2018 21:00:00 22,2 14,6 22,3 20,3 17,9 21 12 34 18 N 1015,8 26 38 0,0
16.07.2018 20:00:00 24,4 15,1 24,7 20,2 17,9 17 9 24 13 N 1015,0 18 29 0,0
16.07.2018 19:00:00 26,3 13,8 29,1 20,1 17,9 17 9 29 16 N 1014,5 32 51 0,0
16.07.2018 18:00:00 25,7 13,2 30,1 20,0 17,9 19 10 34 18 N 1014,5 33 46 0,0
16.07.2018 17:00:00 27,4 14,1 30,3 19,8 17,9 16 8 31 17 NW 1014,1 30 13 0,0
16.07.2018 16:00:00 28,6 12,5 34,7 19,7 17,9 14 7 29 16 W 1014,2 50 40 0,0
16.07.2018 15:00:00 28,4 12,3 33,4 19,6 17,9 9 5 23 13 NW 1014,3 38 54 0,0
16.07.2018 14:00:00 28,0 11,9 37,7 19,5 17,9 8 4 23 12 W 1014,8 43 60 0,0
16.07.2018 13:00:00 26,8 11,3 37,7 19,5 17,9 9 5 21 11 NNW 1015,0 42 60 0,0
16.07.2018 12:00:00 25,5 12,0 37,0 19,5 17,9 8 4 18 10 WNW 1015,2 41 60 0,0
16.07.2018 11:00:00 24,2 14,0 32,2 19,5 17,9 6 4 13 7 NNW 1015,1 19 60 0,0
16.07.2018 10:00:00 21,8 15,2 28,6 19,6 17,9 5 3 11 6 NNW 1015,2 23 60 0,0
16.07.2018 09:00:00 18,5 14,8 19,7 19,7 17,9 4 2 10 6 N 1015,1 10 60 0,0
16.07.2018 08:00:00 14,8 14,2 8,8 19,8 17,9 6 3 9 5 WNW 1014,9 7 18 0,0
16.07.2018 07:00:00 12,6 12,3 6,1 19,9 17,9 7 4 9 5 WNW 1015,2 5 0 0,2
16.07.2018 06:00:00 12,7 12,4 6,2 20,0 17,8 6 3 9 5 WNW 1014,9 5 0 0,0
16.07.2018 05:00:00 12,9 12,4 6,2 20,1 17,9 7 4 9 5 WNW 1014,8 6 0 0,0
16.07.2018 04:00:00 13,5 12,9 6,7 20,2 17,9 4 2 7 4 WNW 1015,1 10 0 0,0
16.07.2018 03:00:00 13,9 12,6 7,6 20,3 17,9 7 4 9 5 WNW 1015,5 14 0 0,0
16.07.2018 02:00:00 14,9 12,8 9,0 20,4 17,9 7 4 12 6 NW 1015,5 20 0 0,0
16.07.2018 01:00:00 15,5 12,6 10,2 20,4 17,9 9 5 13 7 NW 1015,8 24 0 0,0
16.07.2018 00:00:00 17,0 12,7 10,9 20,4 17,9 9 5 12 6 NW 1015,7 18 0 0,0
15.07.2018 23:00:00 20,0 12,2 16,1 20,4 17,8 9 5 17 9 NNW 1015,4 34 0 0,0
15.07.2018 22:00:00 22,6 11,9 19,6 20,4 17,9 15 8 26 14 NNE 1015,0 38 35 0,0
15.07.2018 21:00:00 25,4 10,0 25,8 20,3 17,8 15 8 28 15 N 1014,5 26 60 0,0
15.07.2018 20:00:00 26,7 10,4 28,2 20,2 17,8 20 11 35 19 N 1014,1 48 60 0,0
15.07.2018 19:00:00 28,1 11,2 32,7 20,1 17,9 21 11 32 17 N 1014,2 20 60 0,0
15.07.2018 18:00:00 29,3 12,7 37,8 19,9 17,8 11 6 23 13 NW 1014,3 20 60 0,0
15.07.2018 17:00:00 29,6 12,5 40,3 19,8 17,9 11 6 20 11 WNW 1014,7 43 60 0,0
15.07.2018 16:00:00 28,8 12,7 39,8 19,7 17,9 6 3 20 11 NNW 1014,8 29 60 0,0
15.07.2018 15:00:00 28,1 12,4 39,6 19,6 17,8 9 5 22 12 NW 1015,2 19 60 0,0
15.07.2018 14:00:00 27,5 14,8 38,5 19,5 17,9 8 4 20 11 NNW 1015,6 27 60 0,0
15.07.2018 13:00:00 26,6 13,7 38,2 19,5 17,9 12 7 21 11 NNE 1016,0 20 60 0,0
15.07.2018 12:00:00 25,2 13,1 35,4 19,4 17,8 10 5 23 12 N 1016,6 23 60 0,0
15.07.2018 11:00:00 23,6 13,7 33,1 19,5 17,9 10 5 17 9 NNW 1016,8 22 60 0,0
15.07.2018 10:00:00 21,5 13,9 26,6 19,5 17,8 8 4 16 9 N 1016,9 13 60 0,0
15.07.2018 09:00:00 18,3 13,4 18,6 19,6 17,8 6 4 15 8 N 1017,3 9 60 0,0
15.07.2018 08:00:00 14,9 14,6 10,4 19,7 17,9 8 4 9 5 WNW 1017,2 6 18 0,0
15.07.2018 07:00:00 12,6 12,3 6,8 19,8 17,8 6 3 7 4 W 1017,1 2,9 0 0,0
15.07.2018 06:00:00 12,5 12,2 7,1 19,9 17,8 6 4 11 6 W 1016,9 2,6 0 0,0
15.07.2018 05:00:00 13,0 12,5 8,6 20,0 17,9 9 5 11 6 WNW 1017,2 3,5 0 0,0
15.07.2018 04:00:00 13,4 12,8 8,6 20,0 17,8 8 5 10 5 NW 1017,3 5 0 0,0
15.07.2018 03:00:00 14,3 13,2 11,7 20,1 17,8 8 5 13 7 NW 1017,9 5 0 0,0
15.07.2018 02:00:00 15,1 13,0 13,2 20,2 17,8 10 5 12 7 NW 1018,2 11 0 0,0
15.07.2018 01:00:00 16,1 13,0 13,9 20,2 17,9 10 5 14 7 NW 1018,6 17 0 0,0
15.07.2018 00:00:00 17,0 12,7 14,3 20,2 17,8 8 5 14 7 NW 1018,6 20 0 0,0
14.07.2018 23:00:00 18,4 12,8 16,3 20,2 17,8 10 5 22 12 NW 1018,5 23 0 0,0
14.07.2018 22:00:00 20,9 13,8 19,2 20,2 17,8 13 7 29 16 NNW 1018,0 27 36 0,0
14.07.2018 21:00:00 23,0 14,3 23,5 20,1 17,8 18 10 31 17 N 1017,7 25 60 0,0
14.07.2018 20:00:00 25,6 12,8 27,3 20,1 17,9 17 9 32 17 NNW 1017,5 37 60 0,0
14.07.2018 19:00:00 26,7 12,7 30,9 20,0 17,8 19 10 32 17 N 1017,5 33 60 0,0
14.07.2018 18:00:00 27,4 13,0 34,7 19,9 17,9 20 11 29 16 NNW 1017,7 33 60 0,0
14.07.2018 17:00:00 28,1 13,6 37,8 19,7 17,8 13 7 29 16 NNW 1017,8 34 60 0,0
14.07.2018 16:00:00 27,9 13,4 36,3 19,7 17,9 15 8 27 14 N 1018,2 26 60 0,0
14.07.2018 15:00:00 26,4 13,8 29,9 19,6 17,8 12 6 26 14 NNW 1018,9 17 43 0,0
14.07.2018 14:00:00 26,1 14,5 28,8 19,5 17,8 13 7 23 13 NW 1019,1 16 37 0,0

tt = Température de l'air
td = dewpoint
tt 5cm = Température de l'air 5cm
tt -20cm = Température de l'air -20cm
tt -100cm = Température de l'air -100cm
ff = Vitesse du vent
fx = gusts
dd = Direction du vent
ppp = reduced air pressure
vv = visibility
sd = Ensoleillement
rr = Quantités de précipitations

stations d'obs. à proximité